COSMOS 2208

导读

COSMOS 2208(宇宙2208)是独联体(CIS)在1992年8月12日08:00发射的卫星,归属苏联/俄罗斯“宇宙号”卫星系列。该系列混编军用与科学卫星,多数承担军事任务,包含侦察、通信、导航等用途,也编入空间物理探测等科学卫星。这颗卫星延续了该系列多任务属性,是独联体成立初期航天领域的典型发射活动,延续了苏联航天体系的卫星研发发射传统。

Basic Information
目录编号:
22080
目录名称:
COSMOS 2208
国际标识:
1992-053A
轨道中心:
EARTH
卫星名称:
COSMOS 2208
卫星全名:
--
卫星状态:
在轨 (已飞行12448 天)
发射日期:
1992-08-12 UTC
国别 :
俄罗斯(独联体) (CIS)
星等 :
--
Orbit Information
数据来源 国际轨道数据 AOE轨道数据
星历时间 2026-09-11T02:18:24+0800
10小时前
查看轨道信息
2026-09-11T00:00:00+0800
12小时前
查看轨道信息
半长轴 7164.729km 7164.733km
偏心率 0.0013856 0.0013945
轨道倾角 74.041° 74.040°
近地点辐角 283.688° 284.453°
升交点赤经 117.489° 117.664°
平近点角 76.273° 300.380°
近地点 776.664km 776.604km
远地点 796.52km 796.588km
周期 100.591分钟 100.591分钟
每日圈数 14.315388 14.315377
Detailed Information
使用方式:
暂无
2D Orbit Map
3D Orbit Map
Orbit Altitude Analysis Chart
Orbit Inclination Analysis Chart
Orbit Comprehensive Analysis Chart
View Comprehensive Chart
Conjunction Data List
Event ID Objects TCA Miss Dist (km) Collision Risk Probability Collision Risk Index (CRI) Action
CDM_260908-161302-208003-154728
2026-09-08T
16:13:07+0000
2.013 km
极远距离
2.819526E-6 低风险 0.44
CDM_260907-131802-208003-154726
2026-09-07T
13:18:50+0000
2.255 km
极远距离
2.161893E-6 低风险 0.42
CDM_260907-145902-208003-154726
2026-09-07T
14:59:43+0000
2.387 km
极远距离
1.922855E-6 低风险 0.41
CDM_260911-025302-208002-238726
2026-09-11T
02:53:43+0000
1.291 km
极远距离
1.700195E-6 低风险 0.4
CDM_260911-090402-208004-325026
2026-09-11T
09:04:58+0000
2.876 km
极远距离
1.352302E-6 低风险 0.38
Miss Distance Evolution Trend with All Objects
Collision Probability Evolution Trend with All Objects